Content
SEND FEEDBACK

Daily
Averages
Monthly
Summary
United States of America

UPI, GUAM


Home > North America > United States > Guam
Elevation: 53 feet     Latitude: 13 34N     Longitude: 144 55E

WEATHER
 
SELECT A DAY
Number of Records: 213,030;   Date Range: 1/1/95 - 9/28/14
 
SHARE

PRINT THIS DATA

[ ← Previous Day ]
WEATHER ALMANAC - MAY 6, 2014
[ Next Day → ]
[ °C ]   °F
Weather ElementAverageHighLow
Temperature83.7 °F88 °F (10:54 am)77 °F (1:54 am)
Dewpoint74.1 °F75.9 °F (7:54 am)73 °F (1:54 am)
Humidity73.4 %88 % (1:54 am)61 % (1:54 pm)
Barometer29.93 in29.99 in (8:51 am)29.87 in (3:54 pm)
Wind Speed10.9 mph18.4 mph (9:02 am)
Wind Gust23 mph (10:54 am)
Weather ElementAverage
Visibility10 mi
Wind DirectionENE (70.7 °)

Weather ElementTotal
Precipitation---
Cooling Degree Days17.5 (Base 65)
Growing Degree Days32.5 (Base 50)
Averaged from 28 records on May 6, 2014
WEATHER CONDITIONS BREAKOUT
WIND DIRECTION BREAKOUT
WEATHER BY HOUR - MAY 6, 2014
[ °C ]   °F
Local TimeTemperatureDewpointHumidityBarometerVisibilityWind DirectionWind SpeedGust SpeedPrecipitationEventsConditions
1:54 AM77.0 °F73.0 °F88 %29.93 in10.0 miENE (60°)4.6 mphClear
2:54 AM80.1 °F73.0 °F79 %29.93 in10.0 miENE (60°)4.6 mphClear
3:54 AM78.1 °F73.0 °F84 %29.93 in10.0 miNE (50°)5.8 mphScattered Clouds
4:20 AM78.8 °F73.4 °F83 %29.96 in10.0 miENE (60°)3.5 mphMostly Cloudy
4:38 AM80.6 °F75.2 °F84 %29.96 in10.0 miENE (60°)3.5 mphOvercast
4:54 AM79.0 °F75.0 °F88 %29.94 in10.0 miNE (50°)4.6 mphOvercast
5:54 AM78.1 °F73.9 °F87 %29.95 in10.0 miNE (40°)4.6 mphMostly Cloudy
6:54 AM80.1 °F75.0 °F85 %29.96 in10.0 miNE (40°)5.8 mphPartly Cloudy
7:54 AM82.9 °F75.9 °F79 %29.97 in10.0 miENE (60°)11.5 mphPartly Cloudy
8:51 AM84.2 °F75.2 °F74 %29.99 in10.0 miENE (60°)15.0 mphMostly Cloudy
8:54 AM86.0 °F75.0 °F70 %29.97 in10.0 miEast (80°)15.0 mphMostly Cloudy
9:02 AM86.0 °F75.2 °F70 %29.99 in10.0 miEast (80°)18.4 mphScattered Clouds
9:54 AM87.1 °F73.9 °F65 %29.96 in10.0 miENE (70°)13.8 mphScattered Clouds
10:54 AM88.0 °F75.9 °F67 %29.96 in10.0 miEast (90°)17.3 mph23.0 mphScattered Clouds
11:54 AM88.0 °F73.9 °F63 %29.94 in10.0 miEast (80°)13.8 mphScattered Clouds
12:54 PM86.0 °F73.0 °F65 %29.92 in10.0 miEast (100°)15.0 mph23.0 mphPartly Cloudy
1:54 PM88.0 °F73.0 °F61 %29.90 in10.0 miEast (80°)17.3 mph23.0 mphPartly Cloudy
2:43 PM87.8 °F73.4 °F62 %29.91 in10.0 miEast (100°)11.5 mph21.9 mphScattered Clouds
2:54 PM87.1 °F73.9 °F65 %29.88 in10.0 miEast (90°)13.8 mphMostly Cloudy
3:01 PM87.8 °F73.4 °F62 %29.90 in10.0 miEast (100°)13.8 mphMostly Cloudy
3:12 PM87.8 °F73.4 °F62 %29.90 in10.0 miENE (70°)16.1 mph21.9 mphScattered Clouds
3:54 PM86.0 °F73.0 °F65 %29.87 in10.0 miENE (70°)13.8 mphScattered Clouds
4:12 PM84.2 °F73.4 °F70 %29.89 in10.0 miEast (90°)13.8 mphMostly Cloudy
4:54 PM86.0 °F73.9 °F67 %29.87 in10.0 miEast (80°)12.7 mph20.7 mphScattered Clouds
5:54 PM84.0 °F73.9 °F72 %29.89 in10.0 miEast (80°)12.7 mphPartly Cloudy
9:54 PM81.0 °F73.9 °F79 %29.94 in10.0 miENE (60°)8.1 mphPartly Cloudy
10:54 PM82.0 °F75.0 °F79 %29.94 in10.0 miENE (60°)8.1 mphClear
11:54 PM81.0 °F73.9 °F79 %29.93 in10.0 miENE (60°)6.9 mphClear
Hourly data recorded from PGUM, located miles away from Upi, Guam







STORIES FROM OUR PARTNERS